GW4214 Weather Reports


Display with metric or nautical units.
time (UTC)temp
F
wind
direction
speed
MPH
gust
MPH
rain 1hr
in
rain 24hr
in
rain mn
in
humidity
%
barometer
mb
20260905042427 57 205 0.0 0.0 0.00 0.28 0.28 94 1017.9
20260905041922 57 204 0.0 0.0 0.00 0.28 0.28 94 1017.9
20260905041418 57 194 0.0 0.0 0.00 0.28 0.28 94 1017.9
20260905040913 57 184 0.0 0.0 0.00 0.28 0.28 94 1017.6
20260905040412 57 179 2.0 2.0 0.00 0.28 0.28 94 1017.6
20260905035911 57 200 0.0 0.0 0.00 0.28 0.28 94 1017.6
20260905035407 57 211 0.0 0.0 0.00 0.28 0.28 94 1017.6
20260905034904 57 194 0.0 0.0 0.00 0.28 0.28 94 1017.6
20260905034359 57 200 0.0 0.0 0.00 0.28 0.28 94 1017.6
20260905033857 57 204 0.0 0.0 0.00 0.28 0.28 94 1017.2
20260905033353 57 208 0.0 0.0 0.00 0.28 0.28 94 1017.6
20260905032852 57 209 0.0 0.0 0.00 0.28 0.28 94 1017.2
20260905032348 58 206 0.0 0.0 0.00 0.28 0.28 93 1017.2
20260905031843 58 203 0.0 0.0 0.00 0.28 0.28 93 1017.2
20260905031339 58 204 0.0 0.0 0.00 0.28 0.28 93 1016.9
20260905030833 58 212 0.0 0.0 0.00 0.28 0.28 92 1017.2
20260905030330 58 211 0.0 0.0 0.00 0.28 0.28 92 1017.2
20260905025829 58 215 0.0 0.0 0.00 0.28 0.28 91 1017.2
20260905025324 58 200 0.0 0.0 0.00 0.28 0.28 91 1016.9
20260905024821 58 208 0.0 0.0 0.00 0.28 0.28 90 1016.9
20260905024315 58 204 0.0 0.0 0.00 0.28 0.28 90 1017.2
20260905023805 58 201 0.0 1.0 0.00 0.28 0.28 89 1017.2
20260905023300 59 186 0.0 0.0 0.00 0.28 0.28 89 1016.9
20260905022759 59 155 2.0 2.0 0.00 0.28 0.28 88 1017.2
20260905022255 59 176 0.0 0.0 0.00 0.28 0.28 88 1016.9
20260905021754 59 169 0.0 0.0 0.00 0.28 0.28 86 1017.2
20260905021249 60 197 0.0 0.0 0.00 0.28 0.28 85 1016.9
20260905020744 60 186 3.0 5.0 0.00 0.28 0.28 84 1017.2
20260905020239 60 145 5.0 7.0 0.00 0.28 0.28 82 1017.2
20260905015737 60 129 2.0 3.0 0.00 0.28 0.28 82 1017.2
20260905015233 61 166 1.0 3.0 0.00 0.28 0.28 81 1016.9
20260905014731 61 158 7.0 8.0 0.00 0.28 0.28 81 1016.9
20260905014227 61 121 6.0 8.0 0.00 0.28 0.28 81 1016.9
20260905013722 62 146 6.0 8.0 0.00 0.28 0.28 82 1016.9
20260905013218 62 172 6.0 7.0 0.00 0.28 0.28 81 1016.9
20260905012713 63 126 7.0 9.0 0.00 0.28 0.28 78 1016.9
20260905012209 63 199 0.0 0.0 0.00 0.28 0.28 76 1016.9
20260905011706 63 109 5.0 8.0 0.00 0.28 0.28 74 1016.9
20260905011202 63 160 3.0 6.0 0.00 0.28 0.28 76 1016.9
20260905010701 64 153 3.0 5.0 0.00 0.28 0.28 76 1016.9
20260905010157 64 176 0.0 0.0 0.00 0.28 0.28 77 1016.9
20260905005648 64 163 2.0 2.0 0.00 0.28 0.28 76 1016.5
20260905005143 64 122 1.0 2.0 0.00 0.28 0.28 75 1016.9
20260905004643 64 88 6.0 8.0 0.00 0.28 0.28 74 1016.5
20260905004138 64 188 0.0 0.0 0.00 0.28 0.28 73 1016.5
20260905003633 64 204 0.0 1.0 0.00 0.28 0.28 73 1016.5
20260905003124 64 196 0.0 1.0 0.00 0.28 0.28 72 1016.5
20260905002619 64 190 3.0 5.0 0.00 0.28 0.28 74 1016.2
20260905002114 64 107 6.0 10.0 0.00 0.28 0.28 72 1016.5
20260905001609 64 168 2.0 3.0 0.00 0.28 0.28 74 1016.2
20260905001108 64 178 4.0 7.0 0.00 0.28 0.28 74 1016.2
20260905000603 64 166 2.0 5.0 0.00 0.28 0.28 74 1016.2
20260905000100 64 210 3.0 3.0 0.00 0.28 0.28 75 1015.9
20260904235554 64 178 2.0 3.0 0.00 0.28 0.28 74 1016.2
20260904235054 64 176 4.0 5.0 0.00 0.28 0.28 76 1016.2
20260904234549 64 206 0.0 0.0 0.00 0.28 0.28 79 1016.2
20260904234044 63 194 4.0 6.0 0.00 0.28 0.28 78 1016.2
20260904233539 63 207 0.0 0.0 0.00 0.28 0.28 79 1016.2
20260904233035 62 140 0.0 0.0 0.00 0.28 0.28 82 1016.2
20260904232532 61 157 0.0 0.0 0.00 0.28 0.28 87 1016.2
20260904232028 62 194 0.0 0.0 0.00 0.28 0.28 92 1015.9
20260904231524 62 211 0.0 0.0 0.00 0.28 0.28 95 1015.9
20260904231019 61 219 0.0 0.0 0.00 0.28 0.28 94 1015.9
20260904230518 62 191 0.0 0.0 0.00 0.28 0.28 94 1015.9
20260904230013 61 244 0.0 0.0 0.00 0.28 0.28 94 1015.9
20260904225510 60 219 0.0 0.0 0.00 0.28 0.28 95 1016.2
20260904225009 59 207 0.0 0.0 0.00 0.28 0.28 95 1015.9
20260904224500 59 204 0.0 0.0 0.00 0.28 0.28 96 1015.9
20260904224000 60 190 0.0 0.0 0.00 0.28 0.28 95 1015.9
20260904223458 60 210 0.0 0.0 0.00 0.28 0.28 98 1015.9
20260904222955 59 207 0.0 0.0 0.00 0.28 0.28 97 1015.9
20260904222450 59 193 0.0 0.0 0.00 0.28 0.28 97 1016.2
20260904221950 59 188 0.0 0.0 0.00 0.28 0.28 97 1015.9
20260904221444 59 209 0.0 0.0 0.00 0.28 0.28 97 1016.2
20260904220940 59 210 0.0 0.0 0.05 0.28 0.28 97 1016.2
20260904220439 59 206 0.0 0.0 0.05 0.28 0.28 97 1015.5
20260904215935 58 210 0.0 0.0 0.12 0.28 0.28 97 1015.9
20260904215430 58 201 0.0 1.0 0.12 0.27 0.27 97 1015.9
20260904214925 58 200 0.0 0.0 0.00 0.25 0.25 97 1015.9
20260904214421 58 191 0.0 0.0 0.07 0.25 0.25 96 1015.9
20260904213921 58 206 0.0 0.0 0.07 0.25 0.25 96 1015.5
20260904213414 58 211 0.0 0.0 0.07 0.24 0.24 96 1015.9
20260904212911 58 202 0.0 0.0 0.12 0.24 0.24 95 1015.9
20260904212409 58 204 0.0 0.0 0.05 0.23 0.23 95 1015.9
20260904211906 58 212 0.0 0.0 0.12 0.23 0.23 94 1015.9
20260904211400 58 194 0.0 0.0 0.07 0.22 0.22 92 1016.2
20260904210855 59 194 3.0 8.0 0.05 0.21 0.21 90 1015.9
20260904210355 61 187 4.0 6.0 0.05 0.21 0.21 87 1015.9
20260904205851 63 214 9.0 10.0 0.00 0.20 0.20 80 1015.9
20260904205347 64 114 7.0 9.0 0.00 0.20 0.20 72 1015.9
20260904204843 64 204 5.0 6.0 0.00 0.20 0.20 73 1015.2
20260904204339 64 130 3.0 5.0 0.00 0.20 0.20 73 1015.2
20260904203835 64 131 5.0 7.0 0.00 0.20 0.20 72 1015.2
20260904203331 65 132 4.0 5.0 0.00 0.20 0.20 72 1015.2
20260904202826 66 177 2.0 3.0 0.00 0.20 0.20 72 1015.2
20260904202323 66 168 4.0 6.0 0.00 0.20 0.20 72 1015.2
20260904201819 67 142 6.0 8.0 0.00 0.20 0.20 69 1015.2
20260904201319 66 145 2.0 3.0 0.00 0.20 0.20 73 1015.2
20260904200814 64 133 2.0 5.0 0.00 0.20 0.20 75 1015.2
20260904200308 64 172 3.0 5.0 0.00 0.20 0.20 77 1015.2
20260904195808 63 191 3.0 5.0 0.00 0.20 0.20 79 1015.5
20260904195306 62 137 3.0 3.0 0.00 0.20 0.20 81 1015.5
20260904194801 63 147 5.0 7.0 0.00 0.20 0.20 81 1015.2
20260904194300 62 218 1.0 1.0 0.00 0.20 0.20 84 1015.2
20260904193755 62 197 0.0 0.0 0.00 0.20 0.20 86 1015.5
20260904193250 62 204 1.0 2.0 0.00 0.20 0.20 86 1015.5
20260904192745 61 231 1.0 2.0 0.00 0.20 0.20 88 1015.5
20260904192241 61 197 1.0 2.0 0.00 0.20 0.20 88 1015.9
20260904191738 61 208 0.0 0.0 0.00 0.20 0.20 89 1015.9
20260904191234 60 195 1.0 1.0 0.00 0.20 0.20 89 1015.5
20260904190725 59 151 3.0 3.0 0.00 0.20 0.20 90 1015.5
20260904190220 59 169 2.0 3.0 0.00 0.20 0.20 91 1015.5
20260904185716 59 179 4.0 5.0 0.00 0.20 0.20 94 1015.9
20260904185211 60 226 0.0 1.0 0.00 0.20 0.20 97 1015.9
20260904184709 59 209 1.0 2.0 0.00 0.20 0.20 98 1015.9
20260904184206 58 202 0.0 0.0 0.00 0.20 0.20 99 1015.9
20260904183701 59 175 1.0 2.0 0.00 0.20 0.20 99 1015.5
20260904183155 59 205 0.0 0.0 0.00 0.20 0.20 99 1015.5
20260904182651 59 260 1.0 1.0 0.00 0.20 0.20 99 1015.5
20260904182146 58 217 1.0 2.0 0.00 0.20 0.20 99 1015.2
20260904181641 58 225 0.0 1.0 0.00 0.20 0.20 99 1015.2
20260904181135 58 206 0.0 0.0 0.00 0.20 0.20 99 1015.2
20260904180631 58 263 0.0 1.0 0.00 0.20 0.20 99 1015.5
20260904180120 59 219 0.0 1.0 0.00 0.20 0.20 99 1015.2
20260904175614 59 243 0.0 1.0 0.00 0.20 0.20 99 1015.2
20260904175112 58 224 1.0 1.0 0.00 0.20 0.20 99 1015.2
20260904174607 58 227 0.0 1.0 0.00 0.20 0.20 99 1015.2
20260904174104 59 231 1.0 1.0 0.00 0.20 0.20 99 1015.5
20260904173604 58 215 0.0 0.0 0.00 0.20 0.20 99 1015.2
20260904173059 57 214 1.0 1.0 0.00 0.20 0.20 99 1015.2
20260904172555 58 247 1.0 1.0 0.00 0.20 0.20 99 1015.2
20260904172054 58 282 2.0 2.0 0.00 0.20 0.20 99 1014.9
20260904171549 58 224 0.0 0.0 0.00 0.20 0.20 99 1014.9
20260904171045 57 225 0.0 0.0 0.00 0.20 0.20 99 1014.9
20260904170540 57 216 0.0 1.0 0.00 0.20 0.20 99 1014.9
20260904170037 57 243 2.0 2.0 0.00 0.20 0.20 99 1014.9
20260904165534 57 241 0.0 0.0 0.00 0.20 0.20 99 1014.9
20260904165029 58 228 0.0 0.0 0.00 0.20 0.20 99 1014.9
20260904164524 57 227 0.0 1.0 0.00 0.20 0.20 99 1014.9
20260904164020 57 214 0.0 0.0 0.00 0.20 0.20 99 1014.9
20260904163519 57 209 0.0 0.0 0.00 0.20 0.20 99 1014.5
20260904163014 56 207 0.0 0.0 0.00 0.20 0.20 99 1014.9
20260904162509 57 214 0.0 0.0 0.00 0.20 0.20 99 1014.9
20260904162005 57 249 1.0 2.0 0.00 0.20 0.20 99 1014.5
20260904161459 56 226 0.0 0.0 0.00 0.20 0.20 99 1014.5
20260904160954 56 248 0.0 0.0 0.00 0.20 0.20 99 1014.5
20260904160449 56 275 0.0 1.0 0.00 0.20 0.20 99 1014.9
20260904155944 56 223 0.0 0.0 0.00 0.20 0.20 99 1014.9
20260904155439 57 211 0.0 0.0 0.00 0.20 0.20 99 1014.9
20260904154937 56 213 0.0 0.0 0.00 0.20 0.20 99 1014.5
20260904154432 56 213 0.0 0.0 0.00 0.20 0.20 99 1014.9
20260904153927 56 121 0.0 0.0 0.00 0.20 0.20 99 1014.9
20260904153422 56 120 0.0 0.0 0.00 0.20 0.20 99 1014.5
20260904152919 55 120 0.0 0.0 0.00 0.20 0.20 99 1014.5
20260904152414 55 120 0.0 0.0 0.00 0.20 0.20 99 1014.5
20260904151913 55 120 0.0 0.0 0.00 0.20 0.20 99 1014.5
20260904151408 55 112 1.0 1.0 0.00 0.20 0.20 99 1014.5
20260904150904 55 226 0.0 0.0 0.00 0.20 0.20 99 1014.2
20260904150359 55 191 0.0 1.0 0.07 0.20 0.20 99 1014.5
20260904145856 55 277 1.0 1.0 0.07 0.20 0.20 99 1014.2
20260904145353 55 303 1.0 2.0 0.05 0.19 0.19 99 1014.2
20260904144848 55 241 0.0 1.0 0.05 0.19 0.19 99 1014.2
20260904144344 55 226 0.0 0.0 0.07 0.18 0.18 99 1014.2
20260904143839 55 220 0.0 0.0 0.07 0.18 0.18 99 1014.2
20260904143336 54 217 0.0 0.0 0.00 0.17 0.17 99 1014.2
20260904142832 54 221 0.0 0.0 0.00 0.17 0.17 99 1014.2
20260904142328 54 254 2.0 2.0 0.00 0.17 0.17 99 1014.2
20260904141828 54 247 0.0 1.0 0.00 0.17 0.17 99 1014.2
20260904141323 54 217 0.0 0.0 0.00 0.17 0.17 99 1014.2
20260904140819 54 224 0.0 0.0 0.00 0.17 0.17 99 1013.8
20260904140314 54 217 0.0 0.0 0.00 0.17 0.17 99 1013.8
20260904135813 54 333 0.0 0.0 0.00 0.17 0.17 99 1013.8
20260904135308 54 244 2.0 2.0 0.00 0.17 0.17 99 1013.5
20260904134804 54 222 0.0 0.0 0.05 0.17 0.17 99 1013.5
20260904134304 54 243 1.0 1.0 0.05 0.17 0.17 99 1013.5
20260904133759 54 215 0.0 0.0 0.00 0.16 0.16 99 1013.5
20260904133254 54 218 0.0 0.0 0.00 0.16 0.16 99 1013.5
20260904132754 54 220 0.0 0.0 0.00 0.16 0.16 99 1013.2
20260904132249 54 218 0.0 0.0 0.00 0.16 0.16 99 1013.2
20260904131748 54 218 0.0 0.0 0.00 0.16 0.16 99 1013.2
20260904131244 54 217 0.0 0.0 0.00 0.16 0.16 99 1013.2
20260904130744 54 218 0.0 0.0 0.00 0.16 0.16 99 1013.2
20260904130244 54 215 0.0 0.0 0.00 0.16 0.16 99 1013.2
20260904125740 54 224 0.0 0.0 0.00 0.16 0.16 99 1013.2
20260904125235 54 215 0.0 0.0 0.00 0.16 0.16 99 1013.2
20260904124735 54 224 0.0 0.0 0.00 0.16 0.16 99 1013.2
20260904124231 54 216 0.0 0.0 0.00 0.16 0.16 99 1012.8
20260904123726 54 220 0.0 0.0 0.00 0.16 0.16 99 1013.2
20260904123221 54 217 0.0 0.0 0.00 0.16 0.16 99 1013.2
20260904122716 54 216 0.0 0.0 0.00 0.16 0.16 99 1013.2
20260904122210 54 222 0.0 0.0 0.00 0.16 0.16 99 1013.2
20260904121706 54 216 0.0 0.0 0.00 0.16 0.16 99 1012.8
20260904121201 54 222 0.0 0.0 0.00 0.16 0.16 99 1013.2
20260904120658 54 219 0.0 0.0 0.00 0.16 0.16 99 1012.8
20260904120153 54 218 0.0 0.0 0.00 0.16 0.16 99 1013.2
20260904115649 54 218 0.0 0.0 0.00 0.16 0.16 99 1013.2
20260904115143 54 222 0.0 0.0 0.00 0.16 0.16 99 1012.8
20260904114637 54 215 0.0 0.0 0.00 0.16 0.16 99 1012.8
20260904114138 54 217 0.0 0.0 0.00 0.16 0.16 99 1012.8
20260904113637 54 218 0.0 0.0 0.00 0.16 0.16 99 1012.8
20260904113136 54 215 0.0 0.0 0.00 0.16 0.16 99 1012.5
20260904112632 54 209 0.0 0.0 0.00 0.16 0.16 99 1012.5
20260904112128 54 211 0.0 0.0 0.00 0.16 0.16 99 1012.5
20260904111623 54 212 0.0 0.0 0.00 0.16 0.16 99 1012.5
20260904111119 54 210 0.0 0.0 0.00 0.16 0.16 99 1012.5
20260904110614 54 216 0.0 0.0 0.00 0.16 0.16 99 1012.5
20260904110109 54 220 0.0 0.0 0.00 0.16 0.16 99 1012.5
20260904105609 54 216 0.0 0.0 0.00 0.16 0.16 99 1012.5
20260904105104 54 218 0.0 0.0 0.00 0.16 0.16 99 1012.5
20260904104559 54 219 1.0 1.0 0.00 0.16 0.16 99 1012.5
20260904104055 54 213 0.0 0.0 0.07 0.16 0.16 99 1012.1
20260904103550 54 212 0.0 0.0 0.07 0.16 0.16 99 1012.1
20260904103046 54 216 0.0 0.0 0.07 0.16 0.16 99 1012.5
20260904102542 54 219 0.0 0.0 0.05 0.15 0.15 99 1012.5
20260904102037 54 216 0.0 0.0 0.05 0.15 0.15 99 1012.5
20260904101534 54 216 0.0 0.0 0.05 0.15 0.15 99 1012.5
20260904101029 54 211 0.0 0.0 0.07 0.14 0.14 99 1012.5
20260904100525 54 212 0.0 0.0 0.07 0.14 0.14 99 1012.1
20260904100019 54 213 0.0 0.0 0.05 0.13 0.13 99 1012.5
20260904095514 54 213 0.0 0.0 0.05 0.13 0.13 99 1012.5
20260904095009 54 214 0.0 0.0 0.05 0.13 0.13 99 1012.5
20260904094504 53 211 0.0 0.0 0.00 0.12 0.12 99 1012.5
20260904094000 54 206 0.0 0.0 0.00 0.12 0.12 99 1012.5
20260904093456 54 210 0.0 0.0 0.00 0.12 0.12 99 1012.1
20260904092950 54 213 0.0 0.0 0.00 0.12 0.12 99 1012.5
20260904092446 54 215 0.0 0.0 0.00 0.12 0.12 99 1012.5
20260904091942 54 214 0.0 0.0 0.07 0.12 0.12 99 1012.5
20260904091439 54 217 0.0 0.0 0.07 0.12 0.12 99 1012.1
20260904090938 54 210 0.0 0.0 0.07 0.11 0.11 99 1012.5
20260904090434 54 209 0.0 0.0 0.12 0.11 0.11 99 1012.5
20260904085928 54 207 0.0 0.0 0.12 0.10 0.10 99 1012.5
20260904085424 54 206 0.0 0.0 0.12 0.10 0.10 99 1012.5
20260904084919 54 205 0.0 0.0 0.12 0.08 0.08 99 1012.5
20260904084416 54 206 0.0 0.0 0.12 0.08 0.08 99 1012.5
20260904083910 54 209 0.0 0.0 0.12 0.07 0.07 99 1012.5
20260904083407 54 207 0.0 0.0 0.12 0.06 0.06 99 1012.5
20260904082857 54 212 0.0 0.0 0.12 0.05 0.05 99 1012.5
20260904082357 54 210 0.0 0.0 0.12 0.04 0.04 99 1012.5
20260904081852 54 211 0.0 0.0 0.12 0.03 0.03 99 1012.5
20260904081347 54 209 0.0 0.0 0.05 0.02 0.02 99 1012.5
20260904080844 54 206 0.0 0.0 0.12 0.02 0.02 99 1012.5
20260904080344 54 208 0.0 0.0 0.07 0.01 0.01 99 1012.5
20260904075840 54 212 0.0 0.0 0.00 0.00 0.00 99 1012.5
20260904075335 54 207 0.0 0.0 0.00 0.00 0.00 99 1012.5
20260904074833 54 208 0.0 0.0 0.00 0.00 0.00 99 1012.5
20260904074329 54 211 0.0 0.0 0.00 0.00 0.00 99 1012.5
20260904073825 54 209 0.0 0.0 0.00 0.00 0.00 99 1012.5
20260904073320 54 215 0.0 0.0 0.00 0.00 0.00 99 1012.5
20260904072816 54 215 0.0 0.0 0.00 0.00 0.00 99 1012.5
20260904072315 55 217 0.0 0.0 0.00 0.00 0.00 99 1012.1
20260904071811 54 216 0.0 0.0 0.00 0.00 0.00 99 1012.5
20260904071306 54 213 0.0 0.0 0.00 0.00 0.00 99 1012.5
20260904070801 54 214 0.0 0.0 0.05 0.00 0.00 99 1012.1
20260904070300 54 213 0.0 0.0 0.05 0.00 0.00 99 1012.1
20260904065755 54 213 0.0 0.0 0.00 0.63 0.63 99 1012.1
20260904065252 54 213 0.0 0.0 0.00 0.63 0.63 99 1012.5
20260904064751 54 213 0.0 0.0 0.00 0.63 0.63 99 1012.1
20260904064247 54 216 0.0 0.0 0.00 0.63 0.63 99 1012.1
20260904063743 54 214 0.0 0.0 0.00 0.63 0.63 99 1012.1
20260904063239 54 214 0.0 0.0 0.00 0.63 0.63 99 1012.1
20260904062734 54 215 0.0 0.0 0.00 0.63 0.63 99 1012.1
20260904062230 54 213 0.0 0.0 0.00 0.63 0.63 99 1012.5
20260904061725 54 212 0.0 0.0 0.00 0.63 0.63 99 1012.1
20260904061221 54 218 0.0 0.0 0.00 0.63 0.63 99 1012.5
20260904060718 54 218 0.0 0.0 0.00 0.63 0.63 99 1012.1
20260904060214 54 213 0.0 0.0 0.00 0.63 0.63 99 1012.5
20260904055709 55 214 0.0 0.0 0.00 0.63 0.63 99 1012.1
20260904055209 55 214 0.0 0.0 0.00 0.63 0.63 99 1012.1
20260904054704 54 213 0.0 0.0 0.00 0.63 0.63 99 1012.1
20260904054200 54 213 0.0 0.0 0.00 0.63 0.63 99 1012.1
20260904053655 54 213 0.0 0.0 0.00 0.63 0.63 99 1012.1
20260904053149 54 216 0.0 0.0 0.00 0.63 0.63 99 1012.1
20260904052646 54 213 0.0 0.0 0.00 0.63 0.63 99 1012.1
20260904052136 54 208 0.0 0.0 0.00 0.63 0.63 99 1012.5
20260904051632 54 206 0.0 0.0 0.00 0.63 0.63 99 1012.1
20260904051127 54 205 0.0 0.0 0.00 0.63 0.63 99 1012.5
20260904050622 54 196 0.0 0.0 0.00 0.63 0.63 99 1012.5
20260904050119 54 205 0.0 0.0 0.00 0.63 0.63 99 1012.5
20260904045619 54 198 0.0 0.0 0.00 0.63 0.63 99 1012.5
20260904045113 54 198 0.0 0.0 0.00 0.63 0.63 99 1012.5
20260904044608 54 219 0.0 1.0 0.00 0.63 0.63 99 1012.5
20260904044105 54 210 0.0 0.0 0.00 0.63 0.63 99 1012.1
20260904043602 54 208 0.0 0.0 0.00 0.63 0.63 99 1012.1
20260904043057 54 208 0.0 0.0 0.00 0.63 0.63 99 1012.5